This demonstration page uses our WeatherBlox Daily Observations layout. Learn more.

Left ArrowRight Arrow

31.84235, -102.49876

Hourly Observations for August 11, 2015

Temp ( °F °C ) Dew Point ( °F °C ) Humidity (%) Winds ( mph kmh ) Pressure ( in mb ) Visibility ( mi km ) Precip ( " mm )
12:53 am 00:53 Clear 82 27.8 47 8.3 29 29 ESE 9 15 29.91 1013 10 16 0.00 0.00
1:53 am 01:53 Clear 80 26.7 47 8.3 31 31 S 6 9 29.92 1013 10 16 0.00 0.00
2:53 am 02:53 Clear 76 24.4 51 10.6 42 42 Calm 29.92 1013 10 16 0.00 0.00
3:53 am 03:53 Clear 77 25 50 10 39 39 SSE 6 9 29.93 1014 10 16 0.00 0.00
4:53 am 04:53 Clear 75 23.9 51 10.6 43 43 VRB 3 6 29.95 1014 10 16 0.00 0.00
5:53 am 05:53 Clear 74 23.3 51 10.6 45 45 N 10 17 29.98 1015 10 16 0.00 0.00
6:53 am 06:53 Clear 72 22.2 62 16.7 71 71 N 9 15 30.01 1016 10 16 0.00 0.00
7:53 am 07:53 Sunny 73 22.8 64 17.8 74 74 NNE 10 17 30.02 1017 10 16 0.00 0.00
8:53 am 08:53 Sunny 75 23.9 64 17.8 69 69 NNE 14 22 30.04 1017 10 16 0.00 0.00
9:53 am 09:53 Sunny 80 26.7 64 17.8 58 58 NNE 14 22 30.06 1018 10 16 0.00 0.00
10:53 am 10:53 Sunny 86 30 61 16.1 43 43 ENE 9 15 30.06 1018 10 16 0.00 0.00
11:53 am 11:53 Sunny 87 30.6 59 15 39 39 VRB 5 7 30.06 1018 10 16 0.00 0.00
12:53 pm 12:53 Sunny 90 32.2 57 13.9 33 33 VRB 5 7 30.04 1017 10 16 0.00 0.00
1:53 pm 13:53 Sunny 92 33.3 55 12.8 29 29 E 10 17 30.02 1017 10 16 0.00 0.00
2:53 pm 14:53 Sunny 96 35.6 49 9.4 20 20 SE 10 17 30.00 1016 10 16 0.00 0.00
3:53 pm 15:53 Sunny 97 36.1 46 7.8 17 17 SSE 16 26 29.97 1015 10 16 0.00 0.00
4:53 pm 16:53 Sunny 99 37.2 43 6.1 15 15 ESE 13 20 29.96 1014 10 16 0.00 0.00
5:53 pm 17:53 Sunny 99 37.2 46 7.8 16 16 SSE 16 26 29.94 1014 10 16 0.00 0.00
6:53 pm 18:53 Sunny 97 36.1 45 7.2 17 17 ESE 8 13 29.93 1014 10 16 0.00 0.00
7:53 pm 19:53 Sunny 96 35.6 44 6.7 17 17 ESE 12 19 29.93 1014 10 16 0.00 0.00
8:53 pm 20:53 Clear 92 33.3 43 6.1 18 18 E 8 13 29.95 1014 10 16 0.00 0.00
9:53 pm 21:53 Clear 89 31.7 44 6.7 21 21 ESE 8 13 29.96 1015 10 16 0.00 0.00
10:53 pm 22:53 Clear 88 31.1 44 6.7 22 22 ESE 9 15 29.98 1015 10 16 0.00 0.00
11:53 pm 23:53 Clear 86 30 45 7.2 24 24 ESE 9 15 30.00 1016 10 16 0.00 0.00

Powered by AerisWeather